Location: Dead Woman Crossing
(43.5369°N, 106.3228°W)
Time: 21:11:49
(UTC+00:00)

NANOSAT C BR1 - Visible Passes

Search period start: 28 June 2022 00:00
Search period end: 08 July 2022 00:00
Orbit: 583 x 601 km, 98.0° (Epoch: 28 June)

Date Brightness Start Highest point End Pass type
(mag) Time Alt. Az. Time Alt. Az. Time Alt. Az.
28 Jun ? 08:50:27 10° NNE 08:54:29 43° E 08:56:18 27° SSE visible
28 Jun ? 10:26:51 10° NNW 10:29:42 18° WNW 10:32:33 10° WSW visible
29 Jun ? 08:59:06 10° NNE 09:03:15 55° E 09:05:07 29° SSE visible
29 Jun ? 10:35:58 10° NNW 10:38:21 15° WNW 10:40:44 10° W visible
30 Jun ? 09:07:47 10° NNE 09:12:00 69° ESE 09:13:56 31° S visible
30 Jun ? 10:45:15 10° NW 10:46:59 12° WNW 10:48:42 10° W visible
01 Jul ? 09:16:30 10° NNE 09:20:44 86° ESE 09:22:45 30° S visible
02 Jul ? 09:25:14 10° N 09:29:27 76° WNW 09:31:33 29° SSW visible
03 Jul ? 08:00:30 10° ENE 08:02:14 12° E 08:03:46 10° ESE visible
03 Jul ? 09:34:00 10° N 09:38:10 61° WNW 09:40:21 26° SW visible
04 Jul ? 08:08:33 10° NE 08:11:03 15° E 08:12:33 13° ESE visible
04 Jul ? 09:42:47 10° N 09:46:51 49° WNW 09:49:09 24° SW visible
05 Jul ? 08:16:51 10° NE 08:19:51 19° E 08:21:21 16° ESE visible
05 Jul ? 09:51:35 10° N 09:55:32 39° WNW 09:57:56 20° SW visible
06 Jul ? 08:25:15 10° NE 08:28:38 23° E 08:30:08 19° SE visible
06 Jul ? 10:00:26 10° N 10:04:12 32° WNW 10:06:43 18° WSW visible
07 Jul ? 08:33:44 10° NE 08:37:24 28° E 08:38:55 22° SE visible
07 Jul ? 10:09:18 10° N 10:12:52 27° WNW 10:15:30 15° WSW visible
